Location: Aldenham
(51.6667°N, 0.3500°W)
Time: 17:37:57
(UTC+00:00)

AQUARIUS - Pass Details

Date: 18 November 2025
Orbit: 634 x 636 km, 98.0° (Epoch: 09 December)

Event Time Altitude Azimuth Distance (km) Brightness Sun altitude
Rises 17:42:53 0° 167° (SSE) 2,923 7.5 -14.5°
Reaches altitude 10° 17:45:05 10° 169° (S) 2,019 6.7 -14.9°
Maximum altitude 17:49:29 79° 256° (WSW) 655 4.2 -15.5°
Drops below altitude 10° 17:53:55 10° 344° (NNW) 2,034 6.8 -16.2°
Sets 17:56:08 0° 345° (NNW) 2,947 7.6 -16.5°
